Find Starlink 4776

NORAD ID: 53837 Int'l Des: 2022-114 Owner: SPXS Country: US Constellation: starlink operational
LEOCIRCULAR

当前视图

正在加载3D地球...

About Starlink 4776

Starlink 4776 (NORAD 53837) is a starlink constellation satellite (v1.5) launched Sep 19, 2022 by SPXS of US. It operates in LEO, CIRCULAR orbit with a mass of 305.00 kg.

即将过境

Passes for default location (London). Set your location on the main map for personalized predictions.

高度历史

Loading altitude history...

两行轨道根数

1 53837U 22114V 26236.39727300 .00000526 00000-0 51142-4 0 9996
2 53837 53.1604 270.4643 0000993 113.6916 246.4179 15.08814814218151
Epoch: Aug 24, 2026 • Age: 10 hours

当前状态

高度 547.4 km
远地点 / 近地点 N/A
速度 7.59 km/s
星下点 -25.50°S, 163.95°W
发射日期 Sep 19, 2022
运行时间 3.9 years
类型 internet

技术详情

分类 Payload
质量 305.00 kg
干质量 290.00 kg
总质量 305.00 kg
长度 0.20 m
直径 2.80 m
跨度 9.00 m
形状 Box + pan
制造商 SPXS
平台类型 Starlink
阶段状态 In Orbit
所有者/国家 SPXS/US

Most Searched